TimeEDT,TemperatureF,Dew PointF,Humidity,Sea Level PressureIn,VisibilityMPH,Wind Direction,Wind SpeedMPH,Gust SpeedMPH,PrecipitationIn,Events,Conditions,WindDirDegrees,DateUTC
12:51 AM,64.0,61.0,90,30.01,10.0,Calm,Calm,-,N/A,,Overcast,0,2013-08-01 04:51:00
1:10 AM,64.4,60.8,88,30.03,10.0,Calm,Calm,-,N/A,,Overcast,0,2013-08-01 05:10:00
1:51 AM,64.0,61.0,90,29.99,10.0,Calm,Calm,-,N/A,,Overcast,0,2013-08-01 05:51:00
2:51 AM,64.0,61.0,90,29.99,10.0,Calm,Calm,-,N/A,,Overcast,0,2013-08-01 06:51:00
3:51 AM,64.0,61.0,90,29.97,10.0,Calm,Calm,-,N/A,,Overcast,0,2013-08-01 07:51:00
4:16 AM,64.4,62.6,94,29.98,10.0,Calm,Calm,-,N/A,,Overcast,0,2013-08-01 08:16:00
4:51 AM,63.0,61.0,93,29.96,10.0,Calm,Calm,-,N/A,,Overcast,0,2013-08-01 08:51:00
5:19 AM,64.4,60.8,88,29.98,10.0,Calm,Calm,-,N/A,,Overcast,0,2013-08-01 09:19:00
5:51 AM,64.0,61.0,90,29.96,10.0,Calm,Calm,-,N/A,,Overcast,0,2013-08-01 09:51:00
6:18 AM,64.4,60.8,88,29.98,10.0,Calm,Calm,-,N/A,,Overcast,0,2013-08-01 10:18:00
6:27 AM,64.4,62.6,94,29.99,10.0,Calm,Calm,-,N/A,,Overcast,0,2013-08-01 10:27:00
6:51 AM,64.0,62.1,93,29.97,10.0,Calm,Calm,-,N/A,,Overcast,0,2013-08-01 10:51:00
7:51 AM,64.9,62.1,90,29.97,10.0,Calm,Calm,-,N/A,,Overcast,0,2013-08-01 11:51:00
8:51 AM,66.0,63.0,90,29.98,10.0,Calm,Calm,-,0.00,,Overcast,0,2013-08-01 12:51:00
9:51 AM,68.0,63.0,84,29.98,10.0,Calm,Calm,-,0.00,,Overcast,0,2013-08-01 13:51:00
10:18 AM,69.8,62.6,78,29.99,10.0,WSW,4.6,-,N/A,,Overcast,250,2013-08-01 14:18:00
10:51 AM,70.0,64.0,81,29.97,10.0,WNW,4.6,-,N/A,,Overcast,290,2013-08-01 14:51:00
11:51 AM,69.1,64.9,87,29.97,9.0,West,6.9,-,0.00,Rain,Light Rain,280,2013-08-01 15:51:00
12:51 PM,71.1,64.0,78,29.97,10.0,West,4.6,-,0.05,,Overcast,280,2013-08-01 16:51:00
1:28 PM,69.8,64.4,83,29.99,10.0,WNW,5.8,-,0.00,,Overcast,290,2013-08-01 17:28:00
1:51 PM,71.1,63.0,75,29.97,10.0,NW,5.8,-,0.00,,Overcast,310,2013-08-01 17:51:00
2:51 PM,75.9,64.0,67,29.95,10.0,WNW,6.9,-,N/A,,Mostly Cloudy,290,2013-08-01 18:51:00
3:51 PM,78.1,63.0,60,29.92,10.0,WSW,8.1,-,N/A,,Partly Cloudy,250,2013-08-01 19:51:00
4:51 PM,73.9,63.0,68,29.93,10.0,Variable,5.8,-,N/A,,Scattered Clouds,0,2013-08-01 20:51:00
5:51 PM,69.1,64.0,84,29.94,10.0,Calm,Calm,-,0.05,,Mostly Cloudy,0,2013-08-01 21:51:00
6:51 PM,69.1,64.9,87,29.96,10.0,Calm,Calm,-,0.00,,Mostly Cloudy,0,2013-08-01 22:51:00
7:51 PM,70.0,64.0,81,29.96,10.0,Calm,Calm,-,N/A,,Mostly Cloudy,0,2013-08-01 23:51:00
8:51 PM,66.0,63.0,90,29.97,10.0,Calm,Calm,-,N/A,,Mostly Cloudy,0,2013-08-02 00:51:00
9:51 PM,63.0,61.0,93,29.99,9.0,Calm,Calm,-,N/A,,Partly Cloudy,0,2013-08-02 01:51:00
10:45 PM,60.8,59.0,94,30.01,1.8,Calm,Calm,-,N/A,,Clear,0,2013-08-02 02:45:00
10:51 PM,61.0,59.0,93,30.00,2.0,Calm,Calm,-,N/A,,Clear,0,2013-08-02 02:51:00
11:00 PM,60.8,59.0,94,30.01,3.0,Calm,Calm,-,N/A,,Partly Cloudy,0,2013-08-02 03:00:00
11:07 PM,60.8,59.0,94,30.01,2.5,Calm,Calm,-,N/A,,Partly Cloudy,0,2013-08-02 03:07:00
11:17 PM,60.8,59.0,94,30.01,4.0,Calm,Calm,-,N/A,,Partly Cloudy,0,2013-08-02 03:17:00
11:29 PM,60.8,59.0,94,30.02,2.5,Calm,Calm,-,N/A,,Partly Cloudy,0,2013-08-02 03:29:00
11:51 PM,59.0,57.9,96,30.01,1.5,Calm,Calm,-,N/A,,Partly Cloudy,0,2013-08-02 03:51:00
11:55 PM,60.8,57.2,88,30.02,0.8,Calm,Calm,-,N/A,,Mist,0,2013-08-02 03:55:00